Location: Stonelick Lake State Park
(39.2170°N, 84.0850°W)
Time: 21:59:25
(UTC-04:00)

Daily predictions for brighter satellites

Satellite Brightness Start Highest point End
(mag) Time Altitude Azimuth Time Altitude Azimuth Time Altitude Azimuth
Cosmos 2219 Rocket 2.8 19:46:39 10° SSW 19:52:13 65° WNW 19:57:50 10° NNE
Aureole 2 Rocket 3.9 19:51:14 10° SSE 19:54:57 28° E 19:58:40 10° NE
Helios 1B rocket 3.4 19:51:35 10° NE 19:55:03 26° E 19:58:29 10° SSE
Cosmos 2278 Rocket 2.2 19:49:27 10° NNW 19:55:07 70° ENE 20:00:44 10° SSE
Meteor 1-24 Rocket 4.1 19:50:35 10° N 19:56:00 43° ENE 20:01:11 10° SSE
SJ-6B 3.0 19:52:16 10° SSE 19:56:04 50° ENE 19:59:58 10° N
FREGAT/IRIS 3.4 19:53:33 10° SE 19:56:22 33° ENE 19:59:12 10° N
Cosmos 2297 4.3 19:52:11 10° N 19:57:25 36° ENE 20:02:34 10° SE
Meteor 1-28 Rocket 3.3 19:58:03 10° NNE 20:01:44 54° E 20:05:21 10° S
Cosmos 1707 2.6 19:58:15 10° N 20:02:06 71° E 20:05:56 10° SSE
Cosmos 1624 Rocket 4.2 19:58:41 10° N 20:03:44 48° ENE 20:08:45 10° SE
METEOR-M 4.4 20:00:26 10° SE 20:05:31 47° ENE 20:10:38 10° N
Cosmos 1378 3.9 20:03:25 10° NNE 20:06:47 32° ENE 20:10:09 10° SE
CZ-4C R/B 2.6 20:09:37 10° SW 20:14:52 65° NW 20:20:46 10° NNE
OAO 3 Rocket 4.0 20:10:44 10° SW 20:15:05 36° SSE 20:18:46 14° ESE
Meteor 1-29 3.6 20:13:03 10° NNE 20:16:18 33° E 20:19:30 10° SSE
HJ-1C 3.7 20:14:14 10° SSE 20:17:26 45° ENE 20:20:41 10° N
Cosmos 2346 Rocket 4.4 20:11:30 10° N 20:17:36 86° E 20:23:39 10° S
ATLAS CENTAUR R/B 1.3 20:14:59 10° NNW 20:19:12 62° NE 20:23:02 10° SE
USA 215 3.3 20:16:22 10° NE 20:22:56 84° NW 20:29:28 10° SW
Cosmos 2333 Rocket 3.4 20:17:44 10° SW 20:23:18 48° WNW 20:28:53 10° NNE
Atlas Centaur 2 3.7 20:17:30 10° WSW 20:25:26 43° S 20:31:49 13° ESE
Cosmos 1452 Rocket 4.2 20:28:02 10° N 20:32:51 34° ENE 20:36:02 18° ESE
Cosmos 2034 Rocket 4.1 20:29:54 10° SSE 20:35:54 52° E 20:42:00 10° NNE
Helios 1A 2.9 20:32:34 10° SSE 20:36:44 74° ENE 20:40:55 10° N
Cosmos 1464 Rocket 3.9 20:33:31 10° S 20:39:47 77° E 20:45:59 10° N
Cosmos 1766 3.7 20:42:09 10° SSW 20:46:04 66° W 20:50:02 10° N
SeaSat 1 2.8 20:41:54 10° NE 20:46:35 41° ESE 20:51:14 10° S
Cosmos 1674 4.5 20:46:13 10° NNE 20:47:52 17° NE 20:47:52 17° NE
Cosmos 1766 Rocket 3.4 20:45:38 10° N 20:50:00 66° E 20:54:05 11° SSE
In-Cosmos 22 4.2 20:44:46 10° N 20:50:32 67° E 20:56:15 10° SSE
ASTRO E2 4.0 20:50:11 10° SW 20:53:32 25° S 20:54:17 23° SSE
Cosmos 2237 Rocket 4.0 20:49:21 10° WSW 20:54:25 32° WNW 20:59:30 10° N
Cosmos 192 4.3 20:49:52 10° SSW 20:54:49 89° ESE 20:59:49 10° NNE
NOSS 3-2 (A) 3.5 20:49:23 10° SW 20:55:26 85° WNW 21:02:02 10° NNE
Cosmos 1953 2.1 20:53:58 10° S 20:57:56 73° E 21:01:55 10° NNE
CZ-4B DEB 2.6 20:57:57 41° SSE 20:58:58 78° ENE 21:02:16 10° N
CZ-2D R/B 3.2 21:01:17 37° SE 21:02:39 66° ENE 21:06:32 10° N
Cosmos 1269 Rocket 4.3 21:02:02 10° S 21:06:59 43° ESE 21:11:58 10° NNE
ATLAS 5 CENTAUR R/B 1.7 21:05:28 10° SSW 21:10:12 80° ESE 21:15:20 10° NE
BREEZE-M DEB (TANK) 4.3 20:56:27 10° W 21:10:13 50° N 21:12:53 26° NE
SL-16 R/B 3.0 21:06:32 10° SW 21:12:03 52° WNW 21:17:37 10° NNE
Cosmos 724 4.2 21:06:16 10° SSW 21:12:04 63° ESE 21:18:04 10° NE
Cosmos-2242 3.2 21:14:46 10° SSW 21:19:05 72° W 21:23:29 10° N
Cosmos 1805 3.9 21:17:17 10° SSW 21:21:08 56° W 21:25:02 10° N
Resurs 01 Rocket 3.5 21:17:56 10° SSW 21:21:53 31° W 21:25:51 10° NW
H-2A R/B 3.0 21:23:12 44° SSW 21:24:16 67° WSW 21:28:10 10° NNW
Cosmos 1500 Rocket 4.0 21:20:59 10° N 21:24:24 45° NE 21:24:24 45° NE
Envisat 3.9 21:27:01 33° NE 21:27:01 33° NE 21:30:35 10° N
NOSS 3-3 (A) 4.5 21:19:25 10° NW 21:26:58 83° WSW 21:31:19 30° SSE
NOSS 3-3 (C) 4.5 21:19:31 10° NW 21:27:04 83° WSW 21:31:23 31° SSE
ALOS 3.1 21:26:20 13° S 21:30:17 50° W 21:34:51 10° NNW
NOSS 3-2 (C) 3.9 21:25:50 10° SW 21:31:50 61° NW 21:38:24 10° NNE
ASTEX 1 3.9 21:34:18 10° N 21:39:09 59° W 21:43:56 10° SSW
Cosmos 1743 Rocket 4.4 21:48:20 10° NNW 21:52:38 48° W 21:52:51 48° WSW
GP-B 4.2 21:51:36 10° N 21:54:29 39° NNW 21:54:29 39° NNW
ATLAS CENTAUR R/B 4.3 21:57:16 10° WSW 21:57:32 10° WSW 21:57:49 10° WSW
OAO 3 Rocket 4.4 21:53:34 10° WSW 21:56:35 35° SW 21:56:35 35° SW
Cosmos 1092 Rocket 4.1 21:52:21 10° N 21:58:35 73° W 22:00:03 53° SSW
Cosmos 2142 Rocket 4.4 21:58:10 77° SSE 21:58:39 85° E 22:05:05 10° N
Cosmos 1603 4.3 21:53:19 10° SW 21:58:56 57° WNW 22:04:37 10° NNE
Cosmos 2369 Rocket 3.0 21:54:17 10° NNW 21:58:21 41° NNE 21:58:21 41° NNE
Cosmos 1634 Rocket 4.1 22:09:54 62° SW 22:10:53 73° W 22:17:07 10° N
ERS-1 Rocket 3.9 22:14:27 45° NW 22:14:27 45° NW 22:18:01 10° NNW
Atlas Centaur 2 4.1 22:07:52 10° WSW 22:14:19 26° SSW 22:14:28 26° SSW
Cosmos 1943 Rocket 3.9 22:10:10 10° N 22:12:33 21° NNE 22:12:33 21° NNE
Cosmos 2026 Rocket 4.3 22:10:24 10° N 22:15:08 57° N 22:15:08 57° N
SeaSat 1 4.4 22:19:50 10° N 22:23:53 26° NW 22:27:57 10° WSW
Cosmos 839 Rocket 4.4 22:23:26 10° NNW 22:29:59 66° NNW 22:29:59 66° NNW
ATLAS 5 CENTAUR R/B 4.5 22:52:22 10° WNW 22:55:36 17° NW 22:58:05 13° N
